Change the Weather History Date:

Saturday, February 1, 2014

  Actual Average Record
Temperature  
Mean Temperature 37 °F 31 °F  
Max Temperature 43 °F 38 °F 63 °F (2012)
Min Temperature 30 °F 24 °F 6 °F (2004)
Degree Days  
Heating Degree Days 28 34  
Month to date heating degree days 28 34  
Since 1 July heating degree days 3000 3026  
Cooling Degree Days 0 0  
Month to date cooling degree days 0 0  
Year to date cooling degree days 0 0  
Moisture  
Dew Point 25 °F    
Average Humidity 65    
Maximum Humidity 89    
Minimum Humidity 41    
Precipitation  
Precipitation 0.00 in 0.11 in 1.72 in (2008)
Month to date precipitation 0.00 0.11  
Year to date precipitation 3.98 3.75  
Snow  
Snow 0.00 in 0.30 in 0.60 in (2011)
Month to date snowfall 0.0 0.3  
Since 1 July snowfall 33.6 12.9  
Snow Depth 2.00 in    
Sea Level Pressure  
Sea Level Pressure 30.22 in    
Wind  
Wind Speed 2 mph (SE)    
Max Wind Speed 9 mph    
Max Gust Speed 10 mph    
Visibility 9 miles    
Events      
T = Trace of Precipitation, MM = Missing Value Source: NWS Daily Summary

Daily Weather History Graph

Daily Weather History Graph

Search for Another Location

Airport or City:

Trip Planner

Search our weather history database for the weather conditions in past years. The results will help you decide how hot, cold, wet, or windy it might be!

Date:

Astronomy

Feb. 01, 2014 Rise Set
Actual Time 7:02 AM EST 5:09 PM EST
Civil Twilight 6:33 AM EST 5:38 PM EST
Nautical Twilight 6:00 AM EST 6:11 PM EST
Astronomical Twilight 5:28 AM EST 6:43 PM EST
Moon 7:49 AM EST (2/1) 7:43 PM EST (2/1)
Length of Visible Light 11h 05m
Length of Day
10h 07m
Waxing Crescent, 5% of the Moon is Illuminated
Feb 1
Waxing Crescent
Feb 6
First Quarter
Feb 14
Full
Feb 22
Last Quarter
Mar 1
New

Hourly Weather History & Observations

Time (EST) Temp. Windchill Dew Point Humidity Pressure Visibility Wind Dir Wind Speed Gust Speed Precip Events Conditions
12:56 AM 30.9 °F - 21.0 °F 67% 30.22 in 10.0 mi Calm Calm - N/A   Clear
1:56 AM 30.0 °F - 21.9 °F 72% 30.24 in 10.0 mi Calm Calm - N/A   Clear
2:56 AM 30.0 °F - 21.9 °F 72% 30.25 in 10.0 mi Calm Calm - N/A   Clear
3:56 AM 30.9 °F - 21.9 °F 69% 30.25 in 10.0 mi Calm Calm - N/A   Clear
4:56 AM 30.0 °F - 23.0 °F 75% 30.28 in 9.0 mi Calm Calm - N/A   Clear
5:56 AM 30.0 °F - 23.0 °F 75% 30.29 in 10.0 mi Calm Calm - N/A   Overcast
6:56 AM 30.9 °F 27.5 °F 23.0 °F 72% 30.31 in 10.0 mi NNW 3.5 mph - N/A   Overcast
7:56 AM 33.1 °F - 24.1 °F 70% 30.32 in 10.0 mi Calm Calm - N/A   Mostly Cloudy
8:56 AM 37.0 °F - 24.1 °F 59% 30.33 in 10.0 mi Calm Calm - N/A   Overcast
9:56 AM 39.9 °F - 19.9 °F 45% 30.33 in 10.0 mi Calm Calm - N/A   Overcast
10:56 AM 41.0 °F 36.4 °F 19.9 °F 43% 30.31 in 10.0 mi SE 6.9 mph - N/A   Overcast
11:56 AM 39.9 °F 35.1 °F 19.9 °F 45% 30.29 in 10.0 mi SE 6.9 mph - N/A   Overcast
12:56 PM 41.0 °F 36.4 °F 19.0 °F 41% 30.27 in 10.0 mi SSE 6.9 mph - N/A   Overcast
1:56 PM 42.1 °F 39.2 °F 21.0 °F 43% 30.25 in 10.0 mi South 4.6 mph - N/A   Overcast
2:56 PM 42.1 °F 38.4 °F 26.1 °F 53% 30.23 in 10.0 mi SSE 5.8 mph - N/A   Overcast
3:56 PM 41.0 °F 35.8 °F 28.0 °F 60% 30.22 in 10.0 mi SSE 8.1 mph - N/A   Mostly Cloudy
4:56 PM 39.0 °F 34.8 °F 28.9 °F 67% 30.18 in 10.0 mi SE 5.8 mph - N/A   Mostly Cloudy
5:56 PM 37.9 °F 35.5 °F 28.9 °F 70% 30.19 in 10.0 mi SE 3.5 mph - N/A   Mostly Cloudy
6:56 PM 34.0 °F 31.0 °F 27.0 °F 75% 30.18 in 10.0 mi ESE 3.5 mph - N/A   Mostly Cloudy
7:56 PM 34.0 °F - 28.0 °F 79% 30.15 in 8.0 mi Calm Calm - N/A   Scattered Clouds
8:56 PM 34.0 °F 31.0 °F 28.9 °F 82% 30.11 in 7.0 mi SE 3.5 mph - N/A   Scattered Clouds
9:56 PM 35.1 °F - 30.9 °F 85% 30.08 in 5.0 mi Calm Calm - N/A   Scattered Clouds
10:29 PM 33.8 °F - 30.2 °F 87% 30.06 in 4.0 mi Calm Calm - N/A   Mostly Cloudy
10:56 PM 33.1 °F - 30.9 °F 92% 30.05 in 4.0 mi Calm Calm - N/A   Mostly Cloudy
11:56 PM 34.0 °F - 30.9 °F 89% 30.02 in 5.0 mi Calm Calm - N/A   Mostly Cloudy